EW9394 Weather Reports


time (UTC)temp
C
wind
direction
speed
KPH
gust
KPH
rain 1hr
cm
rain 24hr
cm
rain mn
cm
humidity
%
barometer
mb
20260506205508 16 310 1.6 1.6 0.00 0.41 0.41 80 1015.3
20260506205003 16 262 4.8 4.8 0.00 0.41 0.41 80 1015.4
20260506204502 16 300 4.8 4.8 0.00 0.41 0.41 79 1015.4
20260506203958 16 298 3.2 3.2 0.00 0.41 0.41 79 1015.5
20260506203456 16 296 4.8 8.0 0.00 0.41 0.41 79 1015.5
20260506202953 16 337 1.6 1.6 0.00 0.41 0.41 80 1015.4
20260506202450 15 267 0.0 1.6 0.00 0.41 0.41 81 1015.5
20260506201946 15 340 3.2 3.2 0.00 0.41 0.41 81 1015.8
20260506201444 15 317 3.2 3.2 0.00 0.41 0.41 81 1015.7
20260506200940 15 293 9.7 12.9 0.00 0.41 0.41 81 1016.0
20260506200437 15 275 4.8 11.3 0.00 0.41 0.41 82 1016.1
20260506195933 15 232 3.2 3.2 0.00 0.41 0.41 82 1016.0
20260506195430 15 15 3.2 3.2 0.00 0.41 0.41 84 1015.9
20260506194927 15 34 4.8 4.8 0.00 0.41 0.41 84 1015.6
20260506194424 15 299 4.8 8.0 0.00 0.41 0.41 85 1015.9
20260506193921 15 317 3.2 4.8 0.00 0.41 0.41 86 1015.9
20260506193418 14 291 1.6 1.6 0.00 0.41 0.41 87 1016.1
20260506192914 14 321 4.8 8.0 0.00 0.41 0.41 88 1016.4
20260506192411 13 300 1.6 1.6 0.00 0.41 0.41 88 1016.2
20260506191908 13 292 1.6 1.6 0.00 0.41 0.41 88 1016.5
20260506191404 13 301 6.4 8.0 0.00 0.41 0.41 88 1016.3
20260506190902 13 319 3.2 3.2 0.00 0.41 0.41 88 1016.3
20260506190358 13 317 3.2 3.2 0.00 0.41 0.41 88 1016.2
20260506185855 13 341 3.2 4.8 0.00 0.41 0.41 89 1016.3
20260506185352 13 305 0.0 1.6 0.00 0.41 0.41 89 1016.4
20260506184849 13 344 1.6 1.6 0.00 0.41 0.41 89 1016.4
20260506184346 13 343 3.2 4.8 0.00 0.41 0.41 89 1016.0
20260506183843 13 356 0.0 1.6 0.00 0.41 0.41 91 1015.8
20260506183338 13 123 0.0 0.0 0.00 0.41 0.41 91 1015.6
20260506182836 13 179 1.6 3.2 0.00 0.41 0.41 93 1015.3
20260506182333 13 296 0.0 1.6 0.00 0.41 0.41 94 1014.8
20260506181831 12 294 1.6 1.6 0.00 0.41 0.41 95 1014.6
20260506181329 13 262 3.2 3.2 0.00 0.41 0.41 96 1014.6
20260506180825 12 277 1.6 3.2 0.00 0.41 0.41 96 1014.9
20260506180321 12 13 9.7 14.5 0.00 0.41 0.41 96 1014.6
20260506175818 12 26 1.6 3.2 0.00 0.41 0.41 97 1014.7
20260506175315 12 353 1.6 3.2 0.00 0.41 0.41 97 1015.0
20260506174812 12 137 3.2 4.8 0.00 0.41 0.41 97 1015.4
20260506174309 12 9 4.8 9.7 0.00 0.41 0.41 97 1015.5
20260506173807 12 300 3.2 3.2 0.00 0.41 0.41 97 1015.6
20260506173303 12 231 3.2 4.8 0.00 0.41 0.41 97 1015.9
20260506172800 12 13 0.0 1.6 0.13 0.41 0.41 97 1016.0
20260506172257 12 12 1.6 3.2 0.13 0.41 0.41 97 1015.9
20260506171754 12 86 0.0 0.0 0.00 0.38 0.38 97 1015.9
20260506171251 12 342 1.6 1.6 0.00 0.38 0.38 97 1015.9
20260506170749 12 273 0.0 1.6 0.00 0.38 0.38 97 1016.0
20260506170245 11 329 16.1 17.7 0.00 0.38 0.38 96 1015.8
20260506165744 11 22 9.7 14.5 0.00 0.38 0.38 96 1015.3
20260506165240 11 279 4.8 4.8 0.00 0.38 0.38 97 1015.6
20260506164737 12 24 4.8 4.8 0.00 0.38 0.38 96 1015.9
20260506164234 12 355 4.8 8.0 0.00 0.38 0.38 96 1015.8
20260506163731 12 336 8.0 12.9 0.00 0.38 0.38 96 1016.0
20260506163226 12 306 4.8 8.0 0.00 0.38 0.38 96 1016.1
20260506162722 12 293 0.0 1.6 0.00 0.38 0.38 97 1016.2
20260506162220 13 328 1.6 1.6 0.00 0.38 0.38 96 1016.0
20260506161712 12 313 1.6 3.2 0.00 0.38 0.38 97 1016.3
20260506161209 12 160 4.8 8.0 0.00 0.38 0.38 96 1016.4
20260506160706 12 322 0.0 0.0 0.00 0.38 0.38 96 1016.1
20260506160203 12 194 1.6 3.2 0.00 0.38 0.38 95 1016.4
20260506155701 12 303 3.2 3.2 0.00 0.38 0.38 95 1016.0
20260506155158 12 345 1.6 3.2 0.00 0.38 0.38 95 1015.4
20260506153306 12 258 1.6 1.6 0.30 0.05 0.05 88 1018.0
20260506152802 12 259 1.6 1.6 0.00 0.00 0.00 87 1017.6
20260506152300 12 275 1.6 1.6 0.00 0.00 0.00 87 1017.4
20260506151759 12 323 1.6 1.6 0.00 0.00 0.00 86 1017.4
20260506151255 12 252 3.2 4.8 0.00 0.00 0.00 86 1016.6
20260506150751 12 0 1.6 4.8 0.00 0.00 0.00 86 1016.8
20260506150249 12 287 1.6 3.2 0.00 0.00 0.00 85 1016.3
20260506145745 12 1 1.6 3.2 0.00 0.00 0.00 85 1016.3
20260506145242 12 305 1.6 1.6 0.00 0.00 0.00 85 1015.5
20260506144740 12 326 6.4 8.0 0.00 0.00 0.00 84 1015.7
20260506144236 12 322 3.2 4.8 0.00 0.00 0.00 84 1016.1
20260506143734 12 306 4.8 8.0 0.00 0.00 0.00 84 1016.2
20260506143231 12 301 1.6 3.2 0.00 0.00 0.00 84 1016.2
20260506142730 12 42 1.6 3.2 0.00 0.00 0.00 84 1016.1
20260506142227 12 355 0.0 0.0 0.00 0.00 0.00 85 1015.9
20260506141725 12 326 8.0 12.9 0.00 0.00 0.00 85 1015.8
20260506141223 12 346 4.8 8.0 0.00 0.00 0.00 85 1015.8
20260506140721 12 353 4.8 8.0 0.00 0.00 0.00 86 1015.7
20260506140217 12 357 8.0 11.3 0.00 0.00 0.00 86 1015.5
20260506135714 12 228 4.8 8.0 0.00 0.00 0.00 87 1015.5
20260506135211 12 21 1.6 3.2 0.00 0.00 0.00 87 1015.2
20260506134707 12 320 1.6 1.6 0.00 0.00 0.00 88 1015.3
20260506134204 12 315 8.0 11.3 0.00 0.00 0.00 88 1015.2
20260506133701 12 353 9.7 14.5 0.00 0.00 0.00 87 1015.2
20260506133157 12 329 3.2 4.8 0.00 0.00 0.00 87 1015.1
20260506132655 12 316 4.8 9.7 0.00 0.00 0.00 87 1015.0
20260506132151 12 255 1.6 1.6 0.00 0.00 0.00 87 1014.9
20260506131649 12 334 3.2 4.8 0.00 0.00 0.00 86 1015.1
20260506131145 12 345 4.8 8.0 0.00 0.00 0.00 86 1014.7
20260506130642 12 327 3.2 4.8 0.00 0.00 0.00 86 1015.0
20260506130139 12 11 4.8 8.0 0.00 0.00 0.00 86 1014.9
20260506125637 12 268 4.8 4.8 0.00 0.00 0.00 86 1015.0
20260506125135 12 14 4.8 9.7 0.00 0.00 0.00 86 1014.8
20260506124633 12 223 3.2 8.0 0.00 0.00 0.00 86 1014.6
20260506124131 12 300 6.4 11.3 0.00 0.00 0.00 85 1014.1
20260506123628 12 339 1.6 3.2 0.00 0.00 0.00 85 1014.4
20260506123127 12 291 11.3 14.5 0.00 0.00 0.00 84 1014.4
20260506122623 12 355 11.3 14.5 0.00 0.00 0.00 84 1014.5
20260506122120 12 353 3.2 4.8 0.00 0.00 0.00 83 1014.3
20260506121618 12 265 6.4 8.0 0.00 0.00 0.00 83 1014.4
20260506121114 12 352 6.4 11.3 0.00 0.00 0.00 83 1014.3
20260506120612 12 310 4.8 8.0 0.00 0.00 0.00 83 1014.1
20260506120109 12 330 6.4 11.3 0.00 0.00 0.00 83 1014.1
20260506115608 12 275 3.2 3.2 0.00 0.00 0.00 82 1014.0
20260506115106 12 321 8.0 9.7 0.00 0.00 0.00 82 1013.8
20260506114602 13 267 4.8 8.0 0.00 0.00 0.00 81 1013.9
20260506114101 13 337 4.8 8.0 0.00 0.00 0.00 81 1013.5
20260506113558 12 330 4.8 4.8 0.00 0.00 0.00 81 1013.5
20260506113055 12 288 3.2 3.2 0.00 0.00 0.00 81 1013.3
20260506112552 12 8 6.4 9.7 0.00 0.00 0.00 80 1013.6
20260506112049 13 341 8.0 9.7 0.00 0.00 0.00 80 1013.5
20260506111547 13 277 6.4 9.7 0.00 0.00 0.00 80 1013.3
20260506111044 13 317 11.3 14.5 0.00 0.00 0.00 80 1013.3
20260506110542 13 281 11.3 14.5 0.00 0.00 0.00 79 1013.2
20260506110039 13 287 6.4 8.0 0.00 0.00 0.00 79 1013.1
20260506105535 13 339 4.8 4.8 0.00 0.00 0.00 79 1013.1
20260506105032 13 357 4.8 8.0 0.00 0.00 0.00 79 1012.9
20260506104530 13 306 6.4 9.7 0.00 0.00 0.00 79 1012.9
20260506104028 13 263 4.8 4.8 0.00 0.00 0.00 79 1012.7
20260506103525 13 304 6.4 9.7 0.00 0.00 0.00 78 1012.7
20260506103022 14 335 4.8 9.7 0.00 0.00 0.00 77 1012.4
20260506102520 14 341 4.8 8.0 0.00 0.00 0.00 77 1012.3
20260506102017 14 311 6.4 8.0 0.00 0.00 0.00 77 1012.3
20260506101513 14 290 8.0 11.3 0.00 0.00 0.00 76 1012.0
20260506101011 14 352 4.8 4.8 0.00 0.00 0.00 77 1011.9
20260506100509 14 283 3.2 4.8 0.00 0.00 0.00 77 1012.0
20260506100007 15 309 1.6 1.6 0.00 0.00 0.00 77 1012.1
20260506095505 15 330 6.4 11.3 0.00 0.00 0.00 77 1012.1
20260506095000 15 328 3.2 3.2 0.00 0.00 0.00 77 1012.2
20260506094459 14 264 0.0 0.0 0.00 0.00 0.00 78 1012.0
20260506093956 15 310 4.8 4.8 0.00 0.00 0.00 78 1011.9
20260506093455 15 11 3.2 3.2 0.00 0.00 0.00 77 1012.0
20260506092952 15 275 0.0 0.0 0.00 0.00 0.00 78 1011.9
20260506092450 14 269 0.0 1.6 0.00 0.00 0.00 78 1012.1
20260506091946 15 358 3.2 4.8 0.00 0.00 0.00 78 1011.9
20260506091444 15 310 1.6 3.2 0.00 0.00 0.00 78 1011.9
20260506090941 15 310 3.2 3.2 0.00 0.00 0.00 78 1011.8
20260506090439 15 315 1.6 3.2 0.00 0.00 0.00 78 1011.7
20260506085935 15 324 6.4 8.0 0.00 0.00 0.00 78 1011.9
20260506085432 15 301 0.0 1.6 0.00 0.00 0.00 78 1011.5
20260506084928 15 36 1.6 1.6 0.00 0.00 0.00 78 1011.4
20260506084426 15 338 3.2 4.8 0.00 0.00 0.00 78 1011.5
20260506083921 15 270 4.8 8.0 0.00 0.00 0.00 78 1011.4
20260506083419 15 329 1.6 1.6 0.00 0.00 0.00 78 1011.3
20260506082916 15 282 1.6 1.6 0.00 0.00 0.00 78 1011.4
20260506082413 15 326 3.2 3.2 0.00 0.00 0.00 78 1011.1
20260506081908 15 25 0.0 1.6 0.00 0.00 0.00 78 1011.0
20260506081408 15 285 0.0 0.0 0.00 0.00 0.00 79 1011.0
20260506080904 15 324 1.6 1.6 0.00 0.00 0.00 79 1011.1
20260506080401 15 307 1.6 3.2 0.00 0.00 0.00 79 1011.1
20260506073345 15 314 3.2 4.8 0.00 0.00 0.00 79 1011.3
20260506072841 16 288 4.8 4.8 0.00 0.00 0.00 79 1011.3
20260506072339 16 276 4.8 4.8 0.00 0.00 0.00 79 1011.2
20260506071837 16 3 1.6 4.8 0.00 0.00 0.00 79 1011.2
20260506071335 15 341 3.2 3.2 0.00 0.00 0.00 79 1011.3
20260506070831 16 278 6.4 11.3 0.00 0.00 0.00 79 1011.5
20260506070328 16 2 4.8 4.8 0.00 0.00 0.00 80 1011.1
20260506062306 16 294 3.2 4.8 0.00 0.00 0.00 80 1011.1
20260506061801 16 312 1.6 1.6 0.00 0.00 0.00 79 1011.3
20260506061259 16 320 3.2 4.8 0.00 0.00 0.00 80 1011.3
20260506060757 16 301 8.0 9.7 0.00 0.00 0.00 80 1011.1
20260506060254 16 300 3.2 3.2 0.00 0.00 0.00 80 1011.1
20260506051226 17 306 6.4 9.7 0.00 0.00 0.00 80 1011.0
20260506050724 17 336 1.6 4.8 0.00 0.00 0.00 80 1010.6
20260506050221 17 359 1.6 4.8 0.00 0.00 0.00 80 1010.8
20260506044712 18 42 4.8 8.0 0.00 0.00 0.00 79 1010.8
20260506044209 18 299 6.4 8.0 0.00 0.00 0.00 79 1011.1
20260506043706 18 285 4.8 8.0 0.00 0.00 0.00 79 1010.8
20260506043204 18 359 8.0 11.3 0.00 0.00 0.00 79 1010.5
20260506042703 18 300 8.0 11.3 0.00 0.00 0.00 79 1010.6
20260506042201 18 276 4.8 4.8 0.00 0.00 0.00 79 1010.5
20260506041659 18 355 8.0 11.3 0.00 0.00 0.00 79 1010.4
20260506041155 19 333 6.4 9.7 0.00 0.00 0.00 79 1010.3
20260506040647 19 261 1.6 1.6 0.00 0.00 0.00 78 1010.1
20260506040144 20 354 6.4 8.0 0.00 0.00 0.00 78 1010.2
20260506035641 20 309 3.2 4.8 0.00 0.00 0.00 78 1010.1
20260506035137 20 4 6.4 9.7 0.00 0.00 0.00 78 1010.0
20260506034634 20 292 8.0 12.9 0.00 0.00 0.00 77 1010.0
20260506034131 20 278 4.8 4.8 0.00 0.00 0.00 77 1010.1
20260506033629 21 324 8.0 9.7 0.00 0.00 0.00 77 1009.7
20260506033126 21 307 4.8 4.8 0.00 0.00 0.00 77 1009.9
20260506032623 21 314 3.2 3.2 0.00 0.00 0.00 77 1010.0
20260506032120 21 296 3.2 3.2 0.00 0.00 0.00 77 1009.4
20260506031617 21 343 1.6 3.2 0.00 0.00 0.00 77 1009.4
20260506031114 21 282 4.8 8.0 0.00 0.00 0.00 76 1009.6
20260506030612 21 288 1.6 3.2 0.00 0.00 0.00 76 1009.6
20260506030109 21 2 4.8 8.0 0.00 0.00 0.00 76 1009.5
20260506025606 21 30 4.8 8.0 0.00 0.00 0.00 76 1009.3
20260506025102 22 358 6.4 9.7 0.00 0.00 0.00 76 1009.1
20260506024559 22 347 8.0 9.7 0.00 0.00 0.00 75 1009.0
20260506024056 23 358 8.0 14.5 0.00 0.00 0.00 73 1008.9
20260506023551 23 276 4.8 8.0 0.00 0.00 0.00 72 1008.2
20260506023049 23 23 4.8 8.0 0.00 0.00 0.00 72 1008.4
20260506022547 23 332 3.2 3.2 0.00 0.00 0.00 72 1008.2
20260506022044 23 348 8.0 9.7 0.00 0.00 0.00 72 1007.8
20260506021541 23 263 6.4 8.0 0.00 0.00 0.00 72 1008.0
20260506021039 23 261 1.6 1.6 0.00 0.00 0.00 71 1007.7
20260506020536 23 276 3.2 4.8 0.00 0.00 0.00 71 1007.5
20260506020033 23 291 3.2 3.2 0.00 0.00 0.00 71 1007.8
20260506015531 23 283 3.2 4.8 0.00 0.00 0.00 70 1007.5
20260506015027 23 354 4.8 8.0 0.00 0.00 0.00 70 1008.0
20260506014525 23 340 3.2 8.0 0.00 0.00 0.00 69 1007.7
20260506014021 23 286 1.6 3.2 0.00 0.00 0.00 69 1007.2
20260506013519 23 279 4.8 4.8 0.00 0.00 0.00 68 1007.1
20260506013015 24 348 6.4 8.0 0.00 0.00 0.00 70 1007.3
20260506012511 24 290 3.2 3.2 0.00 0.00 0.00 70 1007.4
20260506012009 25 312 8.0 11.3 0.00 0.00 0.00 70 1007.7
20260506011506 25 59 3.2 3.2 0.00 0.00 0.00 69 1007.4
20260506011002 25 11 4.8 8.0 0.00 0.00 0.00 68 1006.9
20260506010502 26 309 4.8 4.8 0.00 0.00 0.00 68 1007.1
20260506005957 26 331 4.8 9.7 0.00 0.00 0.00 67 1006.8
20260506005455 26 352 3.2 3.2 0.00 0.00 0.00 67 1006.8
20260506004950 26 280 1.6 3.2 0.00 0.00 0.00 67 1006.8
20260506004448 26 264 1.6 1.6 0.00 0.00 0.00 66 1006.6
20260506003944 26 298 3.2 3.2 0.00 0.00 0.00 66 1006.8
20260506003441 26 318 1.6 3.2 0.00 0.00 0.00 66 1006.8
20260506002937 27 283 1.6 3.2 0.00 0.00 0.00 65 1006.6
20260506002433 27 306 4.8 4.8 0.00 0.00 0.00 64 1006.5
20260506001929 27 340 6.4 8.0 0.00 0.00 0.00 64 1006.7
20260506001426 27 258 4.8 4.8 0.00 0.00 0.00 64 1007.0
20260506000923 28 8 4.8 8.0 0.00 0.00 0.00 62 1006.5
20260506000423 28 266 1.6 4.8 0.00 0.00 0.00 61 1006.5
20260505235917 28 8 4.8 4.8 0.00 0.00 0.00 58 1006.1
20260505235415 28 5 6.4 8.0 0.00 0.00 0.00 56 1006.0
20260505234912 28 235 3.2 3.2 0.00 0.00 0.00 59 1006.1
20260505234410 28 276 4.8 8.0 0.00 0.00 0.00 73 1006.1
20260505233906 29 279 6.4 11.3 0.00 0.00 0.00 72 1005.4
20260505233404 29 191 1.6 3.2 0.00 0.00 0.00 71 1005.4
20260505232901 30 165 3.2 3.2 0.00 0.00 0.00 70 1005.6
20260505232359 30 194 4.8 8.0 0.00 0.00 0.00 70 1005.2
20260505231855 30 175 4.8 8.0 0.00 0.00 0.00 68 1005.3
20260505231353 30 192 1.6 3.2 0.00 0.00 0.00 67 1005.5
20260505230851 30 194 4.8 4.8 0.00 0.00 0.00 67 1005.2
20260505230348 30 152 3.2 3.2 0.00 0.00 0.00 68 1005.3
20260505225844 30 198 1.6 1.6 0.00 0.00 0.00 68 1005.1
20260505225342 30 148 4.8 8.0 0.00 0.00 0.00 67 1005.1
20260505224837 30 211 3.2 3.2 0.00 0.00 0.00 67 1005.1
20260505224335 30 170 4.8 4.8 0.00 0.00 0.00 66 1005.0
20260505223832 30 192 1.6 3.2 0.00 0.00 0.00 66 1005.4
20260505223329 31 209 1.6 3.2 0.00 0.00 0.00 64 1004.8
20260505222824 31 191 6.4 9.7 0.00 0.00 0.00 63 1004.8
20260505222321 31 202 6.4 9.7 0.00 0.00 0.00 62 1005.1
20260505221818 32 194 1.6 1.6 0.00 0.00 0.00 60 1005.1
20260505221315 32 190 1.6 1.6 0.00 0.00 0.00 59 1005.1
20260505220812 32 220 3.2 4.8 0.00 0.00 0.00 56 1005.1
20260505220309 32 235 1.6 1.6 0.00 0.00 0.00 54 1004.9
20260505215807 32 157 4.8 4.8 0.00 0.00 0.00 54 1005.0
20260505215305 32 170 4.8 4.8 0.00 0.00 0.00 53 1005.0
20260505214802 33 195 1.6 1.6 0.00 0.00 0.00 53 1004.8
20260505214259 33 215 4.8 9.7 0.00 0.00 0.00 54 1005.0
20260505213756 33 248 8.0 11.3 0.00 0.00 0.00 54 1005.2
20260505213254 33 261 6.4 9.7 0.00 0.00 0.00 54 1005.3
20260505212749 33 242 1.6 1.6 0.00 0.00 0.00 54 1005.2
20260505212247 32 186 3.2 3.2 0.00 0.00 0.00 54 1005.2
20260505211743 32 186 3.2 3.2 0.00 0.00 0.00 54 1005.4
20260505211241 32 268 3.2 3.2 0.00 0.00 0.00 55 1005.3
20260505210737 32 256 4.8 8.0 0.00 0.00 0.00 56 1005.2
20260505210234 32 209 1.6 3.2 0.00 0.00 0.00 56 1005.4
20260505205732 32 192 3.2 4.8 0.00 0.00 0.00 56 1005.4